COSMOS 1375 DEB, 16203

Orbit data source: Space-Track

COSMOS 1375 DEB, 16203 is space debris in LEO originally from a launch on Sun, 06 Jun 1982 UTC launched from the Plesetsk Missile And Space Complex (PKMTR). Debris objects in space refer to the collection of defunct objects orbiting the Earth. Examples of debris include non-operational satellites, rocket bodies, and fragments generated from explosions, collisions, or faulty payload assembly.

Loading next visibility...
Identifier
16203, 1982-055E
Orbit
LEO
Country
Flag of CISCIS
Related business
Manufacturer
Unknown
Mission
Spacecraft
Bus & Motor
Unknown
Mass
Unknown
Launch date (UTC)
1982-06-06 (44 years ago)
Launch vehicle
Unknown
Launch site
Plesetsk Missile And Space Complex (PKMTR)
Object type
Payload
Rocket body
Debris
Shape & HBR
Unknown shape, 0.3 m
Radar Cross Section
Medium (>0.1 m² and <1 m²)

Expand to show TLE details & history
Last TLE update: 2 days ago

TLE from 2 days ago
0 COSMOS 1375 DEB
1 16203U 82055E   26171.45587588 -.00000041  00000-0  34649-4 0  9995
2 16203  65.8347 246.5470 0069507 343.4117 115.3493 13.89198042231169
Epoch: 2026-06-20T10:56Z
TLE epoch observation values (Epoch: 2026-06-20T10:56:27.676Z)
Latitude
64.25985°
Longitude
-74.02753°
Altitude
963.645 km
Speed
7.365 km/s
True Right ascension
23h 55m 01s
True Declination
64° 07' 44"
Sunlit
Object was in daylight at epoch
Visualization orbit readout
Latitude
Unknown
Longitude
Unknown
Altitude
Unknown
Speed
Unknown
Apparent Right ascension
Unknown
Apparent Declination
Unknown
Sunlit
N/A
Visualization observer readout
Local Sidereal Time
07:04:01
Azimuth
Unknown
Elevation
Unknown
Doppler factor
Unknown
Orbital elements
Apogee altitude
980.746 km
Perigee altitude
879.153 km
Semi-major axis
7,308.086 km
Eccentricity
0.00695
Inclination
65.8347°
RAAN
246.547°
Arg. of periapsis
343.4117°
True anomaly
116.06641°
Mean anomaly
115.3493°
Eccentric anomaly
115.70813°
Mean motion
3.47406 °/min
Orbital period
103.63 mins
BSTAR
0.000034649
Loading maneuver chart data...
Computing Atmospheric mass density...
Loading historical data...
Loading historical data...
Loading historical data...
Loading historical data...
Loading historical data...
Loading historical data...
Loading historical data...

Documentation

Showing up to 5 results
|